Location: Black River Observatory
(43.1000°N, 82.6200°W)
Time: 07:23:21
(UTC-04:00)

Daily predictions for brighter satellites

Satellite Brightness Start Highest point End
(mag) Time Altitude Azimuth Time Altitude Azimuth Time Altitude Azimuth
USA 229 DEB 3.8 21:33:56 10° SSW 21:40:51 82° ESE 21:47:53 10° NE
USA 229 3.8 21:34:02 10° SSW 21:40:57 81° ESE 21:48:00 10° NE
Cosmos 2333 Rocket 4.2 21:39:33 10° N 21:43:13 17° NE 21:46:53 10° E
Meteor 2-20 4.5 21:41:34 10° S 21:47:40 73° E 21:53:47 10° NNE
ATLAS CENTAUR R/B 4.0 21:47:30 10° WNW 21:49:53 14° WSW 21:52:09 10° SW
Cosmos 773 Rocket 4.2 21:44:59 10° NNW 21:50:12 80° WSW 21:55:25 10° SSE
Cosmos 1939 Rocket 2.8 21:47:13 10° SSE 21:51:09 79° ENE 21:55:03 10° N
H-2A R/B 2.2 21:47:02 10° SSE 21:51:34 85° ENE 21:56:07 10° NNW
Cosmos 1328 Rocket 4.4 21:47:24 10° NNW 21:51:45 52° W 21:56:03 10° S
Cosmos 1437 Rocket 2.9 21:48:24 10° NNW 21:52:13 78° W 21:56:04 10° S
COSMOS 2428 3.3 21:50:17 10° NNW 21:55:42 44° ENE 22:01:06 10° SE
SPOT 5 3.0 21:54:11 10° SSE 21:58:41 61° ENE 22:03:28 10° N
BREEZE-M DEB (TANK) 4.0 21:58:56 10° NW 22:00:38 19° N 22:02:18 10° ENE
NOSS 3-1 (A) 4.2 21:55:41 10° S 22:00:42 30° ESE 22:06:07 10° NE
Cosmos 2219 Rocket 3.5 21:59:04 10° N 22:03:48 27° NE 22:08:31 10° ESE
PSLV R/B 3.4 22:00:48 10° SSE 22:03:49 53° ENE 22:06:48 10° N
Cosmos 304 Rocket 3.8 21:59:20 10° NNW 22:04:10 89° ENE 22:08:59 10° SSE
ARGOS 4.0 21:59:46 10° SE 22:04:37 35° ENE 22:09:28 10° N
Cosmos 2237 4.3 22:11:39 10° NNW 22:17:24 68° ENE 22:22:30 13° SE
Cosmos 1437 2.9 22:16:49 10° SSW 22:20:04 78° W 22:23:23 10° N
Cosmos 1726 2.9 22:17:08 10° N 22:20:41 37° ENE 22:23:25 15° SE
Cosmos 1328 3.7 22:17:09 10° S 22:21:05 83° E 22:25:04 10° N
ATLAS 2AS CENTAUR R/B 4.1 22:18:20 11° SSE 22:23:24 21° ESE 22:28:59 10° ENE
Envisat 3.5 22:20:45 10° S 22:25:44 59° W 22:30:47 10° NNW
ERS-1 Rocket 4.5 22:22:24 10° SSW 22:26:56 34° W 22:31:31 10° NNW
Cosmos 2219 3.2 22:23:40 10° SSW 22:29:25 82° ESE 22:35:11 10° NNE
Delta 2 Rocket 4.1 22:27:39 10° WSW 22:30:34 24° S 22:31:52 19° SSE
Cosmos 2237 Rocket 3.3 22:30:21 10° N 22:35:26 32° NE 22:39:42 14° ESE
Cosmos 2333 4.3 22:30:03 10° NNW 22:35:46 70° ENE 22:40:15 17° SE
ATLAS 3B R/B 4.1 22:31:12 10° NNW 22:37:18 29° NE 22:43:05 10° E
Cosmos 1271 Rocket 3.4 22:34:14 10° N 22:37:52 39° ENE 22:40:05 20° SE
SL-23 DEB 4.3 22:33:24 10° WNW 22:38:21 51° SW 22:40:32 20° SSE
Cosmos 2151 3.9 22:37:58 10° SSW 22:42:01 47° WNW 22:46:07 10° N
Cosmos 1703 3.9 22:41:16 20° SSE 22:43:23 37° E 22:47:00 10° NNE
Meteor 1-4 Rocket 3.0 22:39:46 10° N 22:43:27 49° ENE 22:45:29 23° SE
SL-14 R/B 3.2 22:40:06 13° S 22:43:34 70° E 22:47:34 10° NNE
Cosmos 2242 Rocket 3.8 22:39:24 10° N 22:43:49 55° E 22:46:45 20° SSE
Meteor 1-27 4.2 22:40:04 10° N 22:45:47 88° W 22:50:34 15° S
Cosmos 1937 Rocket 3.8 22:41:23 13° S 22:45:52 45° ESE 22:50:49 10° NNE
Terra 2.8 22:43:25 18° ESE 22:46:20 34° ENE 22:50:37 10° N
Cosmos 2360 Rocket 3.4 22:41:42 10° NW 22:46:52 37° WSW 22:52:01 10° S
NOSS 3-1 (C) 3.4 22:41:07 10° SSW 22:46:59 82° ESE 22:53:32 10° NE
Cosmos 2298 Rocket 4.0 22:42:10 10° SSW 22:47:28 77° ESE 22:52:48 10° NNE
Iridium 2 4.4 22:47:14 23° SE 22:49:04 38° E 22:52:40 10° NNE
Lacrosse 4 Rocket 3.9 22:47:24 10° N 22:49:57 15° NE 22:52:32 10° E
NOAA 11 4.2 22:47:19 17° SSE 22:51:35 83° ENE 22:57:05 10° NNW
Sich 1 3.0 22:48:45 13° S 22:52:40 80° E 22:57:05 10° N
FALCON 9 R/B 4.4 22:22:14 10° WSW 22:53:14 59° S 23:00:29 12° ESE
CARTOSAT-1 4.3 22:51:07 21° SE 22:53:28 39° ENE 22:57:29 10° N
USA 245 2.7 22:53:36 26° SSW 22:54:43 50° WSW 22:56:59 10° NNW
Cosmos 1633 Rocket 3.0 22:52:39 14° S 22:56:21 82° E 23:00:45 10° N
Cosmos 990 Rocket 4.5 22:53:44 20° SSE 22:56:47 39° ESE 23:01:34 10° NE
Cosmos 2058 3.6 22:53:05 10° SSW 22:57:04 52° W 23:01:06 10° N
DELTA 2 DEB (DPAF) 4.2 22:58:33 24° SSE 23:01:15 72° ENE 23:05:44 10° N
OAO 2 Rocket 4.3 22:57:03 10° SW 23:01:36 29° SSE 23:03:20 24° SE
Cosmos 1626 3.1 23:01:02 26° ESE 23:02:00 30° E 23:05:20 10° NNE
COSMOS 2455 4.1 23:00:29 10° NNW 23:05:52 32° NE 23:10:13 14° ESE
CZ-4 R/B 3.9 23:03:51 10° NNE 23:08:49 82° WNW 23:13:20 12° SSW
SL-08 RB Rocket 3.8 23:06:50 22° S 23:09:42 71° WSW 23:14:12 10° NNW
CZ-4B R/B 4.1 23:05:20 10° N 23:10:32 60° WNW 23:15:37 10° SSW
H-2A R/B 2.2 23:08:02 25° SSE 23:11:15 69° ENE 23:16:41 10° N
Cosmos 1300 4.2 23:11:36 10° NNW 23:15:04 32° W 23:17:53 14° SSW
Cosmos 2227 Rocket 2.4 23:11:30 20° S 23:15:09 51° ESE 23:20:39 10° NE
YAOGAN 6 4.4 23:12:45 12° SSW 23:15:29 26° W 23:18:35 10° NW
Tiangong 1 1.0 23:14:03 10° WSW 23:17:05 56° SSE 23:17:13 55° SSE
Cosmos 1241 Rocket 4.4 23:22:15 11° SSW 23:28:11 67° ESE 23:34:24 10° NE
Cosmos 2333 Rocket 2.2 23:22:33 10° NNW 23:28:20 89° ENE 23:31:18 30° SSE
Cosmos 1898 Rocket 4.2 23:23:51 10° SW 23:28:55 55° WNW 23:34:03 10° NNE
SL-16 R/B 3.1 23:23:40 10° N 23:28:57 38° ENE 23:32:01 22° ESE
IGS 5A 3.4 23:29:10 38° SSE 23:30:44 85° ENE 23:34:56 10° NNW
SeaSat 1 3.9 23:29:32 16° E 23:32:24 27° NE 23:36:32 10° N
Cosmos 1125 Rocket 4.1 23:33:31 32° SE 23:34:55 38° ESE 23:39:48 10° NE
Cosmos 220 Rocket 4.4 23:31:40 14° SSW 23:35:18 63° WNW 23:39:44 10° NNE
Cosmos 1455 2.1 23:33:57 10° N 23:37:46 82° W 23:38:49 46° S
Nadezhda 1 Rocket 4.0 23:32:38 10° N 23:38:44 77° W 23:42:18 27° S
COSMOS 2428 4.1 23:34:56 10° NW 23:39:44 29° WSW 23:43:18 15° SSW
SAR-Lupe-2 3.6 23:40:40 51° S 23:41:27 74° WSW 23:45:03 10° NNW
Cosmos 2297 Rocket 2.2 23:39:29 30° S 23:42:10 60° ESE 23:47:45 10° NNE
Okean 1-7 4.3 23:40:57 10° NNE 23:44:36 27° ENE 23:45:28 25° E
ARGOS 4.5 23:41:02 15° SSW 23:44:50 32° W 23:49:39 10° NNW
Cosmos 2219 Rocket 2.7 23:42:37 10° NW 23:47:59 49° WSW 23:50:35 28° SSW
Cosmos 1470 Rocket 4.1 23:45:42 25° SSW 23:48:02 55° W 23:52:18 10° N
Cosmos 1933 Rocket 4.1 23:46:48 25° SSW 23:49:15 57° W 23:53:40 10° N
NOSS 3-1 (A) 4.3 23:45:23 10° WSW 23:51:12 52° NW 23:57:42 10° NNE
Cosmos 1703 Rocket 3.9 23:47:22 10° N 23:51:39 52° E 23:52:36 43° ESE
Cosmos 1869 3.5 23:51:12 10° NNW 23:55:14 64° W 23:56:15 45° SSW
